Location: Wingville
(42.9917°N, 90.4915°W)
Time: 09:42:54
(UTC+00:00)

JY1SAT - Visible Passes

Search period start: 27 June 2022 00:00
Search period end: 07 July 2022 00:00
Orbit: 566 x 585 km, 97.6° (Epoch: 26 June)

Date Brightness Start Highest point End Pass type
(mag) Time Alt. Az. Time Alt. Az. Time Alt. Az.
27 Jun ? 02:22:41 10° ESE 02:25:26 17° ENE 02:28:11 10° NNE visible
27 Jun ? 03:58:03 22° SSW 04:00:21 42° W 04:04:19 10° NNW visible
28 Jun ? 02:26:06 10° ESE 02:29:01 19° ENE 02:31:57 10° NNE visible
28 Jun ? 04:01:44 21° SSW 04:03:59 38° W 04:07:53 10° NNW visible
29 Jun ? 02:29:32 10° ESE 02:32:37 21° ENE 02:35:42 10° NNE visible
29 Jun ? 04:05:23 20° SSW 04:07:37 35° W 04:11:27 10° NNW visible
30 Jun ? 02:32:58 10° ESE 02:36:12 22° ENE 02:39:26 10° NNE visible
30 Jun ? 04:09:03 19° SSW 04:11:15 32° W 04:15:00 10° NNW visible
01 Jul ? 02:36:28 10° ESE 02:39:47 24° ENE 02:43:08 10° NNE visible
01 Jul ? 04:12:43 18° SW 04:14:54 29° W 04:18:33 10° NW visible
02 Jul ? 02:40:08 11° ESE 02:43:22 26° ENE 02:46:50 10° NNE visible
02 Jul ? 04:16:23 18° SW 04:18:32 27° W 04:22:04 10° NW visible
03 Jul ? 02:43:47 12° SE 02:46:57 28° ENE 02:50:32 10° N visible
03 Jul ? 04:20:02 17° SW 04:22:10 24° W 04:25:35 10° NW visible
04 Jul ? 02:47:27 13° SE 02:50:32 31° ENE 02:54:12 10° N visible
04 Jul ? 04:23:41 16° SW 04:25:48 22° W 04:29:05 10° NW visible
05 Jul ? 02:51:06 14° SE 02:54:07 34° ENE 02:57:52 10° N visible
05 Jul ? 04:27:21 15° SW 04:29:26 20° W 04:32:34 10° NW visible
06 Jul ? 02:54:46 15° SE 02:57:42 37° ENE 03:01:32 10° N visible
06 Jul ? 04:31:00 14° SW 04:33:03 19° W 04:36:02 10° NW visible
